Location: Il Ritiro
(43.4167°N, 13.1333°E)
Time: 07:19:43
(UTC+00:00)

Cosmos 1328 - Pass Details

Date: 05 July 2020
Orbit: 538 x 546 km, 82.5° (Epoch: 05 August)

Event Time Altitude Azimuth Distance (km) Brightness Sun altitude
Exits shadow 20:01:44 - 174° (S) 1,876 6.1 -10.8°
Reaches altitude 10° 20:01:54 10° 174° (S) 1,802 6.0 -10.8°
Maximum altitude 20:05:48 59° 95° (E) 632 3.9 -11.3°
Drops below altitude 10° 20:09:44 10° 16° (NNE) 1,813 6.9 -11.8°
Sets 20:11:54 0° 13° (NNE) 2,709 7.9 -12.0°
